Location: Austin
(30.3000°N, 97.7500°W)
Time: 02:21:05
(UTC-05:00)

Meteor 2-2 Rocket - Pass Details

Date: 15 May 2024
Orbit: 852 x 928 km, 81.3° (Epoch: 29 May)

Event Time Altitude Azimuth Distance (km) Brightness Sun altitude
Exits shadow 21:56:09 24° 166° (SSE) 1,815 5.5 -19.1°
Maximum altitude 21:59:47 61° 94° (E) 1,047 4.4 -19.7°
Drops below altitude 10° 22:05:42 10° 16° (NNE) 2,633 7.0 -20.7°
Sets 22:08:13 0° 13° (NNE) 3,577 7.8 -21.1°
